Location: Newark
(35.2672°N, 80.7344°W)
Time: 01:20:09
(UTC+00:00)

Transit 2A Rocket - Pass Details

Date: 28 January 2020
Orbit: 591 x 912 km, 66.7° (Epoch: 25 February)

Event Time Altitude Azimuth Distance (km) Brightness Sun altitude
Rises 17:23:22 0° 354° (N) 3,040 7.6 36.4°
Reaches altitude 10° 17:26:56 10° 22° (NNE) 2,195 7.0 36.5°
Maximum altitude 17:29:17 13° 50° (NE) 2,029 7.0 36.5°
Drops below altitude 10° 17:31:43 10° 78° (ENE) 2,292 7.5 36.5°
Sets 17:35:35 0° 105° (ESE) 3,297 8.4 36.5°
